utc_time,pst_time,unix_time,wspd,wspd_flg,wdir,wdir_flg,at,at_flg,rh,rh_flg,sr_1,sr1_flg,sr_2,baro,baro_flg,rain,rain_flg,evapo,evapo_flg,dp,dp_flg,vbatt,bit,wgst,wgst_flg
2011-07-11T15:25:30Z,2011-07-11 08:25:30,1310397930,1.8,1,257,1,96.9,4,136,4,0,1,0,1342,3,0,1,0.026,4,40,1,14.5,63900,4.92,1
2011-07-11T15:25:30Z,2011-07-11 08:25:30,1310397930,2,1,265,1,96.9,4,136,4,0,1,0,1342,3,0,1,0.026,4,40,1,14.7,63900,5.51,1
2011-07-11T15:25:30Z,2011-07-11 08:25:30,1310397930,2,1,271,1,96.9,4,136,4,0,1,0,1342,3,0,1,0.026,4,40,1,14.7,63900,5.3,1
2011-07-11T15:25:30Z,2011-07-11 08:25:30,1310397930,2,1,276,1,96.9,4,136,4,0,1,0,1342,3,0,1,0.026,4,40,1,14.7,63900,6.06,1
2011-07-11T15:25:30Z,2011-07-11 08:25:30,1310397930,1.8,1,272,1,96.9,4,136,4,0,1,0,1342,3,0,1,0.026,4,40,1,14.7,63900,5.65,1
2011-07-11T15:25:30Z,2011-07-11 08:25:30,1310397930,2.4,1,268,1,96.9,4,136,4,0,1,0,1342,3,0,1,0.026,4,40,1,14.7,63900,6.47,1
2011-07-11T15:25:30Z,2011-07-11 08:25:30,1310397930,2,1,272,1,96.9,4,136,4,0,1,0,1342,3,0,1,0.026,4,40,1,14.7,63900,5.91,1
2011-07-11T15:25:30Z,2011-07-11 08:25:30,1310397930,2.2,1,268,1,96.9,4,136,4,0,1,0,1342,3,0,1,0.026,4,40,1,14.7,63900,5.89,1
2011-07-11T15:25:31Z,2011-07-11 08:25:31,1310397931,2.2,1,273,1,96.9,4,136,4,0,1,0,1342,3,0,1,0.026,4,40,1,14.7,63900,5.92,1
2011-07-11T15:25:31Z,2011-07-11 08:25:31,1310397931,1.9,1,280,1,96.9,4,136,4,0,1,0,1342,3,0,1,0.026,4,40,1,14.7,63900,5.62,1
2011-07-11T15:25:31Z,2011-07-11 08:25:31,1310397931,1.7,1,276,1,96.9,4,136,4,0,1,0,1342,3,0,1,0.026,4,40,1,14.7,63900,4.46,1
2011-07-11T15:25:31Z,2011-07-11 08:25:31,1310397931,2,1,267,1,96.9,4,136,4,0,1,0,1342,3,0,1,0.026,4,40,1,14.7,63900,5.34,1
2011-07-11T15:25:31Z,2011-07-11 08:25:31,1310397931,2.1,1,272,1,96.9,4,136,4,0,1,0,1342,3,0,1,0.026,4,40,1,14.7,63900,5.55,1
2011-07-11T15:25:31Z,2011-07-11 08:25:31,1310397931,2,1,268,1,96.9,4,136,4,0,1,0,1342,3,0,1,0.026,4,40,1,14.7,63900,5.38,1
2011-07-11T15:25:31Z,2011-07-11 08:25:31,1310397931,1.8,1,258,1,96.9,4,136,4,0,1,0,1342,3,0,1,0.026,4,40,1,14.7,63900,4.6,1
2011-07-11T15:25:31Z,2011-07-11 08:25:31,1310397931,1.7,1,266,1,96.9,4,136,4,0,1,0,1342,3,0,1,0.026,4,40,1,14.7,63900,5.37,1
2011-07-11T15:25:31Z,2011-07-11 08:25:31,1310397931,1.4,1,270,1,96.9,4,136,4,0,1,0,1342,3,0,1,0.026,4,40,1,14.7,63900,4.57,1
2011-07-11T15:25:31Z,2011-07-11 08:25:31,1310397931,1.5,1,283,1,96.9,4,136,4,0,1,0,1342,3,0,1,0.026,4,40,1,14.7,63900,4.59,1
2011-07-11T15:25:31Z,2011-07-11 08:25:31,1310397931,2.2,1,281,1,96.9,4,136,4,0,1,0,1342,3,0,1,0.026,4,40,1,14.7,63900,6.01,1
2011-07-11T15:25:31Z,2011-07-11 08:25:31,1310397931,1.6,1,280,1,96.9,4,136,4,0,1,0,1342,3,0,1,0.026,4,40,1,14.7,63900,6.21,1
2011-07-11T15:25:31Z,2011-07-11 08:25:31,1310397931,1.7,1,275,1,96.9,4,136,4,0,1,0,1342,3,0,1,0.026,4,40,1,14.7,63900,5.09,1
2011-07-11T15:25:31Z,2011-07-11 08:25:31,1310397931,2.4,1,274,1,96.9,4,136,4,0,1,0,1342,3,0,1,0.026,4,40,1,14.7,63900,7.52,1
2011-07-11T15:25:31Z,2011-07-11 08:25:31,1310397931,2.6,1,248,1,96.9,4,136,4,0,1,0,1342,3,0,1,0.026,4,40,1,14.7,63900,6.66,1
2011-07-11T15:25:31Z,2011-07-11 08:25:31,1310397931,2.4,1,249,1,96.9,4,136,4,0,1,0,1342,3,0,1,0.026,4,40,1,14.7,63900,6.2,1
2011-07-11T15:25:54Z,2011-07-11 08:25:54,1310397954,3.3,1,280,1,96.9,4,136,4,0,1,0,1342,3,0,1,0.026,4,40,1,14.7,63800,9,1
2011-07-11T15:26:54Z,2011-07-11 08:26:54,1310398014,3.3,1,278,1,96.9,4,136,4,0,1,0,1342,3,0,1,0.026,4,40,1,14.7,63800,9.16,1
2011-07-11T15:27:54Z,2011-07-11 08:27:54,1310398074,3.6,1,280,1,96.9,4,136,4,0,1,0,1342,3,0,1,0.026,4,40,1,14.7,63900,9.22,1
2011-07-11T15:28:54Z,2011-07-11 08:28:54,1310398134,3.4,1,279,1,96.9,4,136,4,0,1,0,1342,3,0,1,0.026,4,40,1,14.7,63900,9.13,1
2011-07-11T15:29:54Z,2011-07-11 08:29:54,1310398194,3,1,274,1,96.9,4,136,4,0,1,0,1342,3,0,1,0.026,4,40,1,14.7,63800,9.07,1
2011-07-11T15:30:54Z,2011-07-11 08:30:54,1310398254,3,1,267,1,96.9,4,136,4,0,1,0,1342,3,0,1,0.026,4,40,1,14.7,63800,7.79,1
2011-07-11T15:31:54Z,2011-07-11 08:31:54,1310398314,3.2,1,265,1,96.9,4,136,4,0,1,0,1342,3,0,1,0.026,4,40,1,14.7,63800,8.85,1
2011-07-11T15:32:54Z,2011-07-11 08:32:54,1310398374,3.4,1,260,1,96.9,4,136,4,0,1,0,1342,3,0,1,0.026,4,40,1,14.7,63900,8.64,1
2011-07-11T15:33:54Z,2011-07-11 08:33:54,1310398434,2.6,1,281,1,96.9,4,136,4,0,1,0,1342,3,0,1,0.026,4,40,1,14.7,63900,7.75,1
2011-07-11T15:34:54Z,2011-07-11 08:34:54,1310398494,3.5,1,286,1,96.9,4,136,4,0,1,0,1342,3,0,1,0.026,4,40,1,14.7,63800,9.1,1
2011-07-11T15:35:54Z,2011-07-11 08:35:54,1310398554,3.5,1,286,1,96.9,4,136,4,0,1,0,1342,3,0,1,0.026,4,40,1,14.7,63900,8.78,1
2011-07-11T15:36:54Z,2011-07-11 08:36:54,1310398614,2.6,1,281,1,96.9,4,136,4,0,1,0,1342,3,0,1,0.026,4,40,1,14.7,63900,7.39,1
2011-07-11T15:37:54Z,2011-07-11 08:37:54,1310398674,3.4,1,281,1,96.9,4,136,4,0,1,0,1342,3,0,1,0.026,4,40,1,14.7,63900,8.97,1
2011-07-14T16:11:52Z,2011-07-14 09:11:52,1310659912,3.9,1,270,1,96.9,4,136,4,0,1,0,1342,3,0,1,0.026,4,40,1,14.7,63800,10.81,1
2011-07-14T16:12:52Z,2011-07-14 09:12:52,1310659972,4.3,1,269,1,96.9,4,136,4,0,1,0,1342,3,0,1,0.026,4,40,1,14.7,63800,11.15,1
2011-07-14T16:13:52Z,2011-07-14 09:13:52,1310660032,3.8,1,269,1,96.9,4,136,4,0,1,0,1342,3,0,1,0.026,4,40,1,14.7,63800,10.76,1
2011-07-14T16:14:52Z,2011-07-14 09:14:52,1310660092,3.8,1,268,1,96.9,4,136,4,0,1,0,1342,3,0,1,0.026,4,40,1,14.7,63800,11.08,1
2011-07-14T16:15:52Z,2011-07-14 09:15:52,1310660152,4.5,1,271,1,96.9,4,136,4,0,1,0,1342,3,0,1,0.025,4,40,1,14.7,63800,11.43,1
2011-07-14T16:16:52Z,2011-07-14 09:16:52,1310660212,4.2,1,271,1,96.9,4,136,4,0,1,0,1342,3,0,1,0.025,4,40,1,14.7,63800,10.9,1
2011-07-14T16:17:52Z,2011-07-14 09:17:52,1310660272,4.3,1,269,1,96.9,4,136,4,0,1,0,1342,3,0,1,0.025,4,40,1,14.7,63900,11.03,1
2011-07-14T16:18:52Z,2011-07-14 09:18:52,1310660332,3.7,1,267,1,96.9,4,136,4,0,1,0,1342,3,0,1,0.026,4,40,1,14.6,63900,10.32,1
2011-07-14T16:19:52Z,2011-07-14 09:19:52,1310660392,3.7,1,265,1,96.9,4,136,4,0,1,0,1342,3,0,1,0.026,4,40,1,14.7,63800,10.17,1
2011-07-14T16:20:52Z,2011-07-14 09:20:52,1310660452,4,1,265,1,96.9,4,136,4,0,1,0,1342,3,0,1,0.026,4,40,1,14.7,63800,10.19,1
2011-07-14T16:21:52Z,2011-07-14 09:21:52,1310660512,4.2,1,261,1,96.9,4,136,4,0,1,0,1342,3,0,1,0.026,4,40,1,14.7,63900,10.2,1
2011-07-14T16:22:52Z,2011-07-14 09:22:52,1310660572,4.2,1,259,1,96.9,4,136,4,0,1,0,1342,3,0,1,0.025,4,40,1,14.7,63900,10.72,1
2011-07-14T16:23:52Z,2011-07-14 09:23:52,1310660632,3.4,1,267,1,96.9,4,136,4,0,1,0,1342,3,0,1,0.026,4,40,1,14.6,63900,10.45,1
2011-07-14T16:24:52Z,2011-07-14 09:24:52,1310660692,3.4,1,268,1,96.9,4,136,4,0,1,0,1342,3,0,1,0.026,4,40,1,14.7,63800,9.93,1
2011-07-14T16:25:52Z,2011-07-14 09:25:52,1310660752,3.5,1,266,1,96.9,4,136,4,0,1,0,1342,3,0,1,0.026,4,40,1,14.7,63900,9.76,1
2011-07-14T16:26:52Z,2011-07-14 09:26:52,1310660812,3.6,1,265,1,96.9,4,136,4,0,1,0,1342,3,0,1,0.026,4,40,1,14.7,63800,10.43,1
2011-07-14T16:27:52Z,2011-07-14 09:27:52,1310660872,4.3,1,266,1,96.9,4,136,4,0,1,0,1342,3,0,1,0.025,4,40,1,14.7,63800,11.52,1
2011-07-14T16:28:52Z,2011-07-14 09:28:52,1310660932,4.1,1,263,1,96.9,4,136,4,0,1,0,1342,3,0,1,0.025,4,40,1,14.6,63900,10.18,1
2011-07-14T16:29:52Z,2011-07-14 09:29:52,1310660992,3.9,1,268,1,96.9,4,136,4,0,1,0,1342,3,0,1,0.026,4,40,1,14.6,63800,10.74,1
2011-07-14T16:30:52Z,2011-07-14 09:30:52,1310661052,3.9,1,267,1,96.9,4,136,4,0,1,0,1342,3,0,1,0.025,4,40,1,14.6,63800,10.21,1
2011-07-14T16:31:52Z,2011-07-14 09:31:52,1310661112,3.6,1,266,1,96.9,4,136,4,0,1,0,1342,3,0,1,0.025,4,40,1,14.6,63800,10.73,1
2011-07-14T16:32:52Z,2011-07-14 09:32:52,1310661172,3.8,1,267,1,96.9,4,136,4,0,1,0,1342,3,0,1,0.026,4,40,1,14.6,63800,10.33,1
2011-07-14T16:33:52Z,2011-07-14 09:33:52,1310661232,3.9,1,265,1,96.9,4,136,4,0,1,0,1342,3,0,1,0.026,4,40,1,14.6,63800,10.95,1
2011-07-14T16:34:52Z,2011-07-14 09:34:52,1310661292,3.9,1,265,1,96.9,4,136,4,0,1,0,1342,3,0,1,0.025,4,40,1,14.7,63800,11.16,1
2011-07-14T16:35:52Z,2011-07-14 09:35:52,1310661352,4.1,1,269,1,96.9,4,136,4,0,1,0,1342,3,0,1,0.026,4,40,1,14.6,63900,10.73,1
2011-07-14T16:36:52Z,2011-07-14 09:36:52,1310661412,3.1,1,267,1,96.9,4,136,4,0,1,0,1342,3,0,1,0.026,4,40,1,14.7,63800,9.96,1
2011-07-14T16:37:52Z,2011-07-14 09:37:52,1310661472,4.1,1,274,1,96.9,4,136,4,0,1,0,1342,3,0,1,0.026,4,40,1,14.7,63800,10.9,1
2011-07-14T16:38:52Z,2011-07-14 09:38:52,1310661532,3.7,1,275,1,96.9,4,136,4,0,1,0,1342,3,0,1,0.025,4,40,1,14.7,63900,10.68,1
2011-07-14T16:39:52Z,2011-07-14 09:39:52,1310661592,2.9,1,274,1,96.9,4,136,4,0,1,0,1342,3,0,1,0.026,4,40,1,14.6,63800,8.61,1
2011-07-14T16:40:52Z,2011-07-14 09:40:52,1310661652,3.7,1,275,1,96.9,4,136,4,0,1,0,1342,3,0,1,0.026,4,40,1,14.6,63800,10.1,1
2011-07-14T16:41:52Z,2011-07-14 09:41:52,1310661712,3.1,1,276,1,96.9,4,136,4,0,1,0,1342,3,0,1,0.026,4,40,1,14.6,63800,9.86,1
2011-07-14T16:42:52Z,2011-07-14 09:42:52,1310661772,3.7,1,269,1,96.9,4,136,4,0,1,0,1342,3,0,1,0.026,4,40,1,14.7,63800,10.16,1
2011-07-14T16:43:52Z,2011-07-14 09:43:52,1310661832,4,1,270,1,96.9,4,136,4,0,1,0,1342,3,0,1,0.026,4,40,1,14.6,63800,10.74,1
2011-07-14T16:44:52Z,2011-07-14 09:44:52,1310661892,3.7,1,270,1,96.9,4,136,4,0,1,0,1342,3,0,1,0.026,4,40,1,14.6,63800,9.95,1
2011-07-14T16:45:52Z,2011-07-14 09:45:52,1310661952,3.5,1,272,1,96.9,4,136,4,0,1,0,1342,3,0,1,0.026,4,40,1,14.6,63800,10.66,1
2011-07-14T16:46:52Z,2011-07-14 09:46:52,1310662012,3.6,1,274,1,96.9,4,136,4,0,1,0,1342,3,0,1,0.026,4,40,1,14.6,63800,10.59,1
2011-07-14T16:47:52Z,2011-07-14 09:47:52,1310662072,4,1,267,1,96.9,4,136,4,0,1,0,1342,3,0,1,0.025,4,40,1,14.7,63800,10.53,1
2011-07-14T16:48:52Z,2011-07-14 09:48:52,1310662132,3.9,1,271,1,96.9,4,136,4,0,1,0,1342,3,0,1,0.025,4,40,1,14.6,63800,11.1,1
2011-07-14T16:49:52Z,2011-07-14 09:49:52,1310662192,3.5,1,271,1,96.9,4,136,4,0,1,0,1342,3,0,1,0.026,4,40,1,14.6,63800,10.09,1
2011-07-14T16:50:52Z,2011-07-14 09:50:52,1310662252,3.6,1,277,1,96.9,4,136,4,0,1,0,1342,3,0,1,0.026,4,40,1,14.6,63800,10.48,1
2011-07-14T16:51:52Z,2011-07-14 09:51:52,1310662312,4,1,279,1,96.9,4,136,4,0,1,0,1342,3,0,1,0.026,4,40,1,14.6,63800,10.79,1
2011-07-14T16:52:52Z,2011-07-14 09:52:52,1310662372,4.5,1,281,1,96.9,4,136,4,0,1,0,1342,3,0,1,0.026,4,40,1,14.6,63900,11.49,1
2011-07-14T16:53:52Z,2011-07-14 09:53:52,1310662432,3.7,1,278,1,96.9,4,136,4,0,1,0,1342,3,0,1,0.026,4,40,1,14.6,63800,10.19,1
2011-07-14T16:54:52Z,2011-07-14 09:54:52,1310662492,4,1,278,1,96.9,4,136,4,0,1,0,1342,3,0,1,0.025,4,40,1,14.6,63800,11.27,1
2011-07-14T16:55:52Z,2011-07-14 09:55:52,1310662552,4.7,1,285,1,96.9,4,136,4,0,1,0,1342,3,0,1,0.025,4,40,1,14.6,63900,13.4,1
2011-07-14T16:56:52Z,2011-07-14 09:56:52,1310662612,4.8,1,276,1,96.9,4,136,4,0,1,0,1342,3,0,1,0.026,4,40,1,14.6,63900,12.73,1
2011-07-14T16:57:52Z,2011-07-14 09:57:52,1310662672,4.1,1,276,1,96.9,4,136,4,0,1,0,1342,3,0,1,0.026,4,40,1,14.6,63800,11.95,1
2011-07-14T16:58:52Z,2011-07-14 09:58:52,1310662732,4.1,1,276,1,96.9,4,136,4,0,1,0,1342,3,0,1,0.026,4,40,1,14.7,63800,12.16,1
2011-07-14T16:59:52Z,2011-07-14 09:59:52,1310662792,4.6,1,278,1,96.9,4,136,4,0,1,0,1342,3,0,1,0.026,4,40,1,14.6,63800,13.07,1
2011-07-14T17:00:52Z,2011-07-14 10:00:52,1310662852,5,1,286,1,96.9,4,136,4,0,1,0,1342,3,0,1,0.025,4,40,1,14.6,63800,13.09,1
2011-07-14T17:01:52Z,2011-07-14 10:01:52,1310662912,4.2,1,279,1,96.9,4,136,4,0,1,0,1342,3,0,1,0.025,4,40,1,14.6,63800,11.98,1
2011-07-14T17:02:52Z,2011-07-14 10:02:52,1310662972,4.5,1,277,1,96.9,4,136,4,0,1,0,1342,3,0,1,0.025,4,40,1,14.6,63800,12.34,1
2011-07-14T17:03:52Z,2011-07-14 10:03:52,1310663032,4.8,1,277,1,96.9,4,136,4,0,1,0,1342,3,0,1,0.025,4,40,1,14.6,63800,12.82,1
2011-07-14T17:04:52Z,2011-07-14 10:04:52,1310663092,5,1,276,1,96.9,4,136,4,0,1,0,1342,3,0,1,0.026,4,40,1,14.6,63800,13.46,1
2011-07-14T17:05:52Z,2011-07-14 10:05:52,1310663152,5.9,1,282,1,96.9,4,136,4,0,1,0,1342,3,0,1,0.025,4,40,1,14.6,63900,14.98,1
2011-07-14T17:06:52Z,2011-07-14 10:06:52,1310663212,4.4,1,279,1,96.9,4,136,4,0,1,0,1342,3,0,1,0.025,4,40,1,14.6,63900,12.52,1
2011-07-14T17:07:52Z,2011-07-14 10:07:52,1310663272,3.9,1,277,1,96.9,4,136,4,0,1,0,1342,3,0,1,0.025,4,40,1,14.6,63800,11.48,1
2011-07-14T17:08:52Z,2011-07-14 10:08:52,1310663332,4.4,1,279,1,96.9,4,136,4,0,1,0,1342,3,0,1,0.025,4,40,1,14.6,63800,11.66,1
2011-07-14T17:09:52Z,2011-07-14 10:09:52,1310663392,4.9,1,282,1,96.9,4,136,4,0,1,0,1342,3,0,1,0.026,4,40,1,14.6,63800,13.63,1
2011-07-14T17:10:52Z,2011-07-14 10:10:52,1310663452,5.4,1,286,1,96.9,4,136,4,0,1,0,1342,3,0,1,0.025,4,40,1,14.6,63800,13.38,1
2011-07-14T17:11:52Z,2011-07-14 10:11:52,1310663512,5.1,1,287,1,96.9,4,136,4,0,1,0,1342,3,0,1,0.025,4,40,1,14.6,63800,13.92,1
2011-07-14T17:12:52Z,2011-07-14 10:12:52,1310663572,5.4,1,284,1,96.9,4,136,4,0,1,0,1342,3,0,1,0.025,4,40,1,14.6,63900,14.02,1
2011-07-14T17:13:52Z,2011-07-14 10:13:52,1310663632,5.3,1,281,1,96.9,4,136,4,0,1,0,1342,3,0,1,0.025,4,40,1,14.6,63900,13.47,1
2011-07-14T17:14:52Z,2011-07-14 10:14:52,1310663692,4.9,1,283,1,96.9,4,136,4,0,1,0,1342,3,0,1,0.025,4,40,1,14.6,63900,12.72,1
2011-07-14T17:15:52Z,2011-07-14 10:15:52,1310663752,3.6,1,273,1,96.9,4,136,4,0,1,0,1342,3,0,1,0.026,4,40,1,14.6,63800,10.21,1
2011-07-14T17:16:52Z,2011-07-14 10:16:52,1310663812,4.6,1,278,1,96.9,4,136,4,0,1,0,1342,3,0,1,0.026,4,40,1,14.7,63800,12.43,1
2011-07-14T17:17:52Z,2011-07-14 10:17:52,1310663872,4.4,1,279,1,96.9,4,136,4,0,1,0,1342,3,0,1,0.026,4,40,1,14.6,63800,12.4,1
2011-07-14T17:18:52Z,2011-07-14 10:18:52,1310663932,4.7,1,283,1,96.9,4,136,4,0,1,0,1342,3,0,1,0.026,4,40,1,14.6,63800,12.5,1
2011-07-14T17:19:52Z,2011-07-14 10:19:52,1310663992,4.3,1,278,1,96.9,4,136,4,0,1,0,1342,3,0,1,0.025,4,40,1,14.6,63800,11.81,1
2011-07-14T17:20:52Z,2011-07-14 10:20:52,1310664052,3.5,1,276,1,96.9,4,136,4,0,1,0,1342,3,0,1,0.026,4,40,1,14.6,63800,9.99,1
2011-07-14T17:21:52Z,2011-07-14 10:21:52,1310664112,3.3,1,277,1,96.9,4,136,4,0,1,0,1342,3,0,1,0.026,4,40,1,14.6,63800,10.64,1
2011-07-14T17:22:52Z,2011-07-14 10:22:52,1310664172,5.2,1,282,1,96.9,4,136,4,0,1,0,1342,3,0,1,0.025,4,40,1,14.6,63800,13.69,1
2011-07-14T17:23:52Z,2011-07-14 10:23:52,1310664232,4.9,1,282,1,96.9,4,136,4,0,1,0,1342,3,0,1,0.025,4,40,1,14.6,63800,13.48,1
2011-07-14T17:24:52Z,2011-07-14 10:24:52,1310664292,4.4,1,281,1,96.9,4,136,4,0,1,0,1342,3,0,1,0.025,4,40,1,14.6,63800,11.84,1
2011-07-14T17:25:52Z,2011-07-14 10:25:52,1310664352,4.5,1,284,1,96.9,4,136,4,0,1,0,1342,3,0,1,0.025,4,40,1,14.6,63800,13.12,1
2011-07-14T17:26:52Z,2011-07-14 10:26:52,1310664412,5.5,1,285,1,96.9,4,136,4,0,1,0,1342,3,0,1,0.025,4,40,1,14.6,63800,13.98,1
2011-07-14T17:27:52Z,2011-07-14 10:27:52,1310664472,4.9,1,286,1,96.9,4,136,4,0,1,0,1342,3,0,1,0.025,4,40,1,14.6,63900,12.87,1
2011-07-14T17:28:52Z,2011-07-14 10:28:52,1310664532,3.9,1,280,1,96.9,4,136,4,0,1,0,1342,3,0,1,0.025,4,40,1,14.6,63800,10.61,1
2011-07-14T17:29:52Z,2011-07-14 10:29:52,1310664592,4.1,1,283,1,96.9,4,136,4,0,1,0,1342,3,0,1,0.025,4,40,1,14.6,63800,11.35,1
2011-07-14T17:30:52Z,2011-07-14 10:30:52,1310664652,4.8,1,281,1,96.9,4,136,4,0,1,0,1342,3,0,1,0.026,4,40,1,14.6,63800,13.49,1
2011-07-14T17:31:52Z,2011-07-14 10:31:52,1310664712,4.5,1,284,1,96.9,4,136,4,0,1,0,1342,3,0,1,0.026,4,40,1,14.6,63800,13.16,1
2011-07-14T17:32:52Z,2011-07-14 10:32:52,1310664772,4.3,1,285,1,96.9,4,136,4,0,1,0,1342,3,0,1,0.026,4,40,1,14.6,63800,12.29,1
2011-07-14T17:33:52Z,2011-07-14 10:33:52,1310664832,3.9,1,287,1,96.9,4,136,4,0,1,0,1342,3,0,1,0.025,4,40,1,14.6,63800,11.21,1
2011-07-14T17:34:52Z,2011-07-14 10:34:52,1310664892,4.2,1,281,1,96.9,4,136,4,0,1,0,1342,3,0,1,0.025,4,40,1,14.6,63800,12.05,1
2011-07-14T17:35:52Z,2011-07-14 10:35:52,1310664952,4.9,1,283,1,96.9,4,136,4,0,1,0,1342,3,0,1,0.025,4,40,1,14.6,63800,12.53,1
2011-07-14T17:36:52Z,2011-07-14 10:36:52,1310665012,4.4,1,279,1,96.9,4,136,4,0,1,0,1342,3,0,1,0.025,4,40,1,14.6,63800,12.32,1
2011-07-14T17:37:52Z,2011-07-14 10:37:52,1310665072,4.2,1,278,1,96.9,4,136,4,0,1,0,1342,3,0,1,0.026,4,40,1,14.6,63800,13.1,1
2011-07-14T17:38:52Z,2011-07-14 10:38:52,1310665132,5.2,1,281,1,96.9,4,136,4,0,1,0,1342,3,0,1,0.026,4,40,1,14.6,63800,14.27,1
2011-07-14T17:39:52Z,2011-07-14 10:39:52,1310665192,5.3,1,286,1,96.9,4,136,4,0,1,0,1342,3,0,1,0.025,4,40,1,14.6,63800,13.71,1
2011-07-14T17:40:52Z,2011-07-14 10:40:52,1310665252,4.8,1,284,1,96.9,4,136,4,0,1,0,1342,3,0,1,0.025,4,40,1,14.6,63800,12.95,1
2011-07-14T17:41:52Z,2011-07-14 10:41:52,1310665312,4.6,1,278,1,96.9,4,136,4,0,1,0,1342,3,0,1,0.025,4,40,1,14.6,63800,13.31,1
2011-07-14T17:42:52Z,2011-07-14 10:42:52,1310665372,5.7,1,280,1,96.9,4,136,4,0,1,0,1342,3,0,1,0.025,4,40,1,14.6,63800,15.58,1
2011-07-14T17:43:52Z,2011-07-14 10:43:52,1310665432,5.1,1,280,1,96.9,4,136,4,0,1,0,1342,3,0,1,0.026,4,40,1,14.6,63900,13.47,1
2011-07-14T17:44:52Z,2011-07-14 10:44:52,1310665492,5.4,1,283,1,96.9,4,136,4,0,1,0,1342,3,0,1,0.025,4,40,1,14.6,63800,14.3,1
2011-07-14T17:45:52Z,2011-07-14 10:45:52,1310665552,4.2,1,277,1,96.9,4,136,4,0,1,0,1342,3,0,1,0.025,4,40,1,14.6,63800,12.32,1
2011-07-14T17:46:52Z,2011-07-14 10:46:52,1310665612,4.6,1,277,1,96.9,4,136,4,0,1,0,1342,3,0,1,0.026,4,40,1,14.6,63800,12.07,1
2011-07-14T17:47:52Z,2011-07-14 10:47:52,1310665672,4.6,1,276,1,96.9,4,136,4,0,1,0,1342,3,0,1,0.025,4,40,1,14.6,63800,13.29,1
2011-07-14T17:48:52Z,2011-07-14 10:48:52,1310665732,5.5,1,280,1,96.9,4,136,4,0,1,0,1342,3,0,1,0.025,4,40,1,14.6,63800,14.75,1
2011-07-14T17:49:52Z,2011-07-14 10:49:52,1310665792,4.4,1,274,1,96.9,4,136,4,0,1,0,1342,3,0,1,0.026,4,40,1,14.6,63800,12.64,1
2011-07-14T17:50:52Z,2011-07-14 10:50:52,1310665852,4.8,1,276,1,96.9,4,136,4,0,1,0,1342,3,0,1,0.025,4,40,1,14.7,63800,12.73,1
2011-07-14T17:51:52Z,2011-07-14 10:51:52,1310665912,4.3,1,270,1,96.9,4,136,4,0,1,0,1342,3,0,1,0.025,4,40,1,14.6,63800,13.84,1
2011-07-14T17:52:52Z,2011-07-14 10:52:52,1310665972,4.2,1,271,1,96.9,4,136,4,0,1,0,1342,3,0,1,0.025,4,40,1,14.6,63800,14.2,1
2011-07-14T17:53:52Z,2011-07-14 10:53:52,1310666032,4.9,1,274,1,96.9,4,136,4,0,1,0,1342,3,0,1,0.025,4,40,1,14.6,63800,15.6,1
2011-07-14T17:54:52Z,2011-07-14 10:54:52,1310666092,4.5,1,276,1,96.9,4,136,4,0,1,0,1342,3,0,1,0.025,4,40,1,14.6,63800,14.43,1
2011-07-14T17:55:52Z,2011-07-14 10:55:52,1310666152,4.2,1,277,1,96.9,4,136,4,0,1,0,1342,3,0,1,0.025,4,40,1,14.6,63800,13.18,1
2011-07-14T17:56:52Z,2011-07-14 10:56:52,1310666212,5.3,1,273,1,96.9,4,136,4,0,1,0,1342,3,0,1,0.025,4,40,1,14.6,63800,15.19,1
2011-07-14T17:57:52Z,2011-07-14 10:57:52,1310666272,5.4,1,268,1,96.9,4,136,4,0,1,0,1342,3,0,1,0.025,4,40,1,14.6,63800,14.47,1
2011-07-14T17:58:52Z,2011-07-14 10:58:52,1310666332,4.7,1,268,1,96.9,4,136,4,0,1,0,1342,3,0,1,0.025,4,40,1,14.6,63800,12.8,1
2011-07-14T17:59:52Z,2011-07-14 10:59:52,1310666392,4.8,1,271,1,96.9,4,136,4,0,1,0,1342,3,0,1,0.025,4,40,1,14.6,63800,13.8,1
2011-07-14T18:00:52Z,2011-07-14 11:00:52,1310666452,4.9,1,275,1,96.9,4,136,4,0,1,0,1342,3,0,1,0.026,4,40,1,14.6,63800,13.64,1
2011-07-14T18:01:52Z,2011-07-14 11:01:52,1310666512,4.4,1,270,1,96.9,4,136,4,0,1,0,1342,3,0,1,0.025,4,40,1,14.6,63800,12.98,1
2011-07-14T18:02:53Z,2011-07-14 11:02:53,1310666573,3.9,1,270,1,96.9,4,136,4,0,1,0,1342,3,0,1,0.026,4,40,1,14.6,63800,12.48,1
2011-07-14T18:03:52Z,2011-07-14 11:03:52,1310666632,3.9,1,271,1,96.9,4,136,4,0,1,0,1342,3,0,1,0.026,4,40,1,14.6,63800,11.56,1
2011-07-14T18:04:52Z,2011-07-14 11:04:52,1310666692,4.3,1,268,1,96.9,4,136,4,0,1,0,1342,3,0,1,0.026,4,40,1,14.6,63800,12.79,1
2011-07-14T18:05:52Z,2011-07-14 11:05:52,1310666752,4.8,1,274,1,96.9,4,136,4,0,1,0,1342,3,0,1,0.026,4,40,1,14.6,63800,12.89,1
2011-07-14T18:06:52Z,2011-07-14 11:06:52,1310666812,4.5,1,272,1,96.9,4,136,4,0,1,0,1342,3,0,1,0.025,4,40,1,14.6,63800,13.64,1
2011-07-14T18:07:52Z,2011-07-14 11:07:52,1310666872,4.6,1,266,1,96.9,4,136,4,0,1,0,1342,3,0,1,0.025,4,40,1,14.6,63800,12.09,1
2011-07-14T18:08:52Z,2011-07-14 11:08:52,1310666932,5,1,272,1,96.9,4,136,4,0,1,0,1342,3,0,1,0.026,4,40,1,14.6,63800,13.44,1
2011-07-14T18:09:52Z,2011-07-14 11:09:52,1310666992,4.8,1,272,1,96.9,4,136,4,0,1,0,1342,3,0,1,0.025,4,40,1,14.6,63800,13.8,1
2011-07-14T18:10:52Z,2011-07-14 11:10:52,1310667052,4.2,1,271,1,96.9,4,136,4,0,1,0,1342,3,0,1,0.026,4,40,1,14.6,63800,11.29,1
2011-07-14T18:11:52Z,2011-07-14 11:11:52,1310667112,4.6,1,266,1,96.9,4,136,4,0,1,0,1342,3,0,1,0.025,4,40,1,14.6,63900,12.12,1
2011-07-14T18:12:52Z,2011-07-14 11:12:52,1310667172,4.2,1,266,1,96.9,4,136,4,0,1,0,1342,3,0,1,0.025,4,40,1,14.6,63800,11.46,1
2011-07-14T18:13:52Z,2011-07-14 11:13:52,1310667232,4.3,1,265,1,96.9,4,136,4,0,1,0,1342,3,0,1,0.026,4,40,1,14.6,63800,12.58,1
2011-07-14T18:14:52Z,2011-07-14 11:14:52,1310667292,4.6,1,268,1,96.9,4,136,4,0,1,0,1342,3,0,1,0.025,4,40,1,14.6,63800,13.75,1
2011-07-14T18:15:52Z,2011-07-14 11:15:52,1310667352,4.2,1,267,1,96.9,4,136,4,0,1,0,1342,3,0,1,0.025,4,40,1,14.6,63800,11.6,1
2011-07-14T18:16:52Z,2011-07-14 11:16:52,1310667412,4.7,1,265,1,96.9,4,136,4,0,1,0,1342,3,0,1,0.026,4,40,1,14.6,63800,12.58,1
2011-07-14T18:17:52Z,2011-07-14 11:17:52,1310667472,4.4,1,269,1,96.9,4,136,4,0,1,0,1342,3,0,1,0.025,4,40,1,14.6,63800,12.56,1
2011-07-14T18:18:52Z,2011-07-14 11:18:52,1310667532,4.6,1,274,1,96.9,4,136,4,0,1,0,1342,3,0,1,0.025,4,40,1,14.6,63800,12.32,1
2011-07-14T18:19:52Z,2011-07-14 11:19:52,1310667592,4.4,1,268,1,96.9,4,136,4,0,1,0,1342,3,0,1,0.026,4,40,1,14.6,63800,11.42,1
2011-07-14T18:20:52Z,2011-07-14 11:20:52,1310667652,4.6,1,270,1,96.9,4,136,4,0,1,0,1342,3,0,1,0.025,4,40,1,14.6,63800,13.22,1
2011-07-14T18:21:52Z,2011-07-14 11:21:52,1310667712,4.6,1,269,1,96.9,4,136,4,0,1,0,1342,3,0,1,0.025,4,40,1,14.6,63800,11.64,1
2011-07-14T18:22:52Z,2011-07-14 11:22:52,1310667772,5.3,1,268,1,96.9,4,136,4,0,1,0,1342,3,0,1,0.026,4,40,1,14.6,63800,14.22,1
2011-07-14T18:23:52Z,2011-07-14 11:23:52,1310667832,5.2,1,272,1,96.9,4,136,4,0,1,0,1342,3,0,1,0.025,4,40,1,14.6,63800,14.04,1
2011-07-14T18:24:52Z,2011-07-14 11:24:52,1310667892,4.2,1,271,1,96.9,4,136,4,0,1,0,1342,3,0,1,0.025,4,40,1,14.6,63800,11.77,1
2011-07-14T18:25:52Z,2011-07-14 11:25:52,1310667952,4.8,1,269,1,96.9,4,136,4,0,1,0,1342,3,0,1,0.026,4,40,1,14.6,63800,13.36,1
2011-07-14T18:26:52Z,2011-07-14 11:26:52,1310668012,4,1,268,1,96.9,4,136,4,0,1,0,1342,3,0,1,0.025,4,40,1,14.6,63800,11.64,1
2011-07-14T18:27:52Z,2011-07-14 11:27:52,1310668072,5.1,1,270,1,96.9,4,136,4,0,1,0,1342,3,0,1,0.025,4,40,1,14.6,63800,15.21,1
2011-07-14T18:28:52Z,2011-07-14 11:28:52,1310668132,4.5,1,271,1,96.9,4,136,4,0,1,0,1342,3,0,1,0.025,4,40,1,14.6,63900,13.83,1
2011-07-14T18:29:52Z,2011-07-14 11:29:52,1310668192,4.9,1,270,1,96.9,4,136,4,0,1,0,1342,3,0,1,0.025,4,40,1,14.6,63800,13.61,1
2011-07-14T18:30:52Z,2011-07-14 11:30:52,1310668252,5.5,1,271,1,96.9,4,136,4,0,1,0,1342,3,0,1,0.025,4,40,1,14.6,63800,13.97,1
2011-07-14T18:31:52Z,2011-07-14 11:31:52,1310668312,5.1,1,268,1,96.9,4,136,4,0,1,0,1342,3,0,1,0.026,4,40,1,14.6,63800,13.62,1
2011-07-14T18:32:52Z,2011-07-14 11:32:52,1310668372,4.7,1,268,1,96.9,4,136,4,0,1,0,1342,3,0,1,0.026,4,40,1,14.6,63800,12.52,1
2011-07-14T18:33:52Z,2011-07-14 11:33:52,1310668432,5,1,272,1,96.9,4,136,4,0,1,0,1342,3,0,1,0.026,4,40,1,14.6,63800,13.67,1
2011-07-14T18:34:52Z,2011-07-14 11:34:52,1310668492,4.8,1,271,1,96.9,4,136,4,0,1,0,1342,3,0,1,0.025,4,40,1,14.6,63800,12.58,1
2011-07-14T18:35:52Z,2011-07-14 11:35:52,1310668552,4.8,1,271,1,96.9,4,136,4,0,1,0,1342,3,0,1,0.025,4,40,1,14.6,63800,12.85,1
2011-07-14T18:36:52Z,2011-07-14 11:36:52,1310668612,4.2,1,266,1,96.9,4,136,4,0,1,0,1342,3,0,1,0.025,4,40,1,14.6,63800,11.54,1
2011-07-14T18:37:52Z,2011-07-14 11:37:52,1310668672,3.9,1,266,1,96.9,4,136,4,0,1,0,1342,3,0,1,0.025,4,40,1,14.6,63800,11.14,1
2011-07-14T18:38:52Z,2011-07-14 11:38:52,1310668732,4.7,1,271,1,96.9,4,136,4,0,1,0,1342,3,0,1,0.026,4,40,1,14.6,63800,13.68,1
2011-07-14T18:39:52Z,2011-07-14 11:39:52,1310668792,5.5,1,270,1,96.9,4,136,4,0,1,0,1342,3,0,1,0.026,4,40,1,14.6,63800,14.3,1
2011-07-14T18:40:52Z,2011-07-14 11:40:52,1310668852,4.5,1,271,1,96.9,4,136,4,0,1,0,1342,3,0,1,0.025,4,40,1,14.6,63800,13.28,1
2011-07-14T18:41:52Z,2011-07-14 11:41:52,1310668912,4.4,1,268,1,96.9,4,136,4,0,1,0,1342,3,0,1,0.026,4,40,1,14.6,63800,12.4,1